Weather in Onot

Russia / Irkutsk Oblast     52°44′16″N   102°03′02″E
temp.,
°C
wind,
m/s
gust,
m/s
humid.,
%
clouds,
%
prec.,
mm/h
press.,
hPa
HPBL,
m
26 october, tue
tue2623:00+1ssw3364100 0.0 102248
02:00+1sw226395 0.0 102028
05:00+1sw336380 0.0 101938
08:00+1sw32630 0.0 102032
11:00+8wsw22434 0.0 1018197
14:00+12ne11375 0.0 1017542
17:00+8ene11545 0.0 101813
20:00+3s22683 0.0 102011
27 october, wed
wed2723:00+2ssw22775 0.0 101821
02:00+2ssw22665 0.0 101421
05:00+2ssw226547 0.0 101227
08:00+2sw2264100 0.0 101128
11:00+9nnw22445 0.0 1012196
14:00+13nnw13327 0.0 1014647
17:00+9e115241 0.0 101710
20:00+4sw116631 0.0 102110
28 october, thu
thu2823:00+2nnw228720 0.0 102534
02:00+1nne0187100 0.0 102698
05:000ne1182100 0.0 102635
08:00−1nne2370100 0.0 1027401
11:00−1nne2276100 0.0 1029684
14:00−1ne1280100 0.2 1030569
17:000e117674 0.1 1031474
20:00−4sse11925 0.1 103310
29 october, fri
fri2923:00−4s119473 0.0 103310
02:00−4s1194100 0.0 103210
05:00−4sse119591 0.0 103210
08:00−5ssw109421 0.0 103310
11:00+1e11675 0.0 1032348
14:00+4e22565 0.0 1030570
17:00+1ene11710 0.0 103010
20:00−2ssw11885 0.0 103210
30 october, sat
sat3023:00−2ssw11885 0.0 103110
02:00−2ssw118497 0.0 103110
05:00−2ssw117843 0.0 103010
08:00−2ssw21775 0.0 103111
11:00+5sse11495 0.0 1029212
14:00+8e124142 0.0 1026530
17:00+3e116648 0.0 102610
20:000sw2178100 0.0 102611